Regional Weather Roundup
Issued by NWS

Home | Current Version | Previous Version | Graphics & Text | Print | Product List | Glossary On
Versions: 1 2 3 4 5 6 7 8 9 10 11 12 13 14 15 16 17 18 19 20 21 22 23 24 25 26 27 28 29 30 31 32 33 34 35 36 37 38 39 40 41 42 43 44 45 46 47 48 49 50
000
ASUS43 KFSD 171802
RWRSD

WEATHER ROUNDUP FOR SOUTH DAKOTA
NATIONAL WEATHER SERVICE SIOUX FALLS SD
100 PM CDT FRI APR 17 2015

NOTE: "FAIR" INDICATES FEW OR NO CLOUDS BELOW 12,000 FEET WITH NO
SIGNIFICANT WEATHER AND/OR OBSTRUCTIONS TO VISIBILITY.


SDZ001>005-009-010-012>017-171900-
NORTHWEST AND NORTH CENTRAL SOUTH DAKOTA

CITY           SKY/WX    TMP DP  RH WIND       PRES   REMARKS
BUFFALO          N/A     61  24  24 VRB3      30.13F
FAITH            N/A     63  18  17 VRB5      30.18F
MOBRIDGE       SUNNY     66  21  18 NW8       30.15F
$$

SDZ012>016-024>037-041>051-057-063-072>074-171900-
SOUTHWEST AND SOUTH CENTRAL SOUTH DAKOTA

CITY           SKY/WX    TMP DP  RH WIND       PRES   REMARKS
RAPID CTY ARPT CLOUDY    55  34  45 N9        30.20F
PIERRE         MOSUNNY   68  31  25 N7        30.14F
CUSTER         CLOUDY    45  30  55 NE14      30.20F
PHILIP         CLOUDY    63  31  30 NE13      30.16F
PINE RIDGE     LGT RAIN  49  43  80 NE5       30.17S
WINNER         FAIR      66  40  38 NE13      30.13F
$$

SDZ004>011-016>023-039-040-171900-
NORTHEAST SOUTH DAKOTA

CITY           SKY/WX    TMP DP  RH WIND       PRES   REMARKS
ABERDEEN       SUNNY     69  23  17 NW10      30.13F
WATERTOWN      SUNNY     67  20  16 VRB3      30.13F
BROOKINGS      SUNNY     68  32  26 N12       30.11F
SISSETON         N/A     68  19  15 N7        30.11F
$$

SDZ017-020-022-023-036>040-048>070-171900-
SOUTHEAST SOUTH DAKOTA

CITY           SKY/WX    TMP DP  RH WIND       PRES   REMARKS
SIOUX FALLS    MOSUNNY   73  44  35 NE3       30.09F
HURON          SUNNY     70  26  19 VRB6      30.13F
MITCHELL       SUNNY     72  39  30 NE8       30.12F
YANKTON        PTSUNNY   70  46  43 E5        30.09F
$$

ABBREVIATIONS USED IN REMARKS
   TC - TEMPERATURE IN CELSIUS
  WCI - WIND CHILL INDEX
   HX - HEAT INDEX
  VSB - VISIBILITY



USA.gov is the U.S. government's official web portal to all federal, state and local government web resources and services.